| time (UTC) | temp F | wind direction | speed knots | gust knots | rain 1hr in | rain 24hr in | rain mn in | humidity % | barometer mb |
| 20260507090004 | 55 | 276 | 0.9 | 1.7 | 0.00 | 0.00 | 0.00 | 83 | 1021.4 |
| 20260507085403 | 55 | 286 | 0.9 | 2.6 | 0.00 | 0.00 | 0.00 | 82 | 1021.4 |
| 20260507084503 | 55 | 298 | 0.0 | 0.9 | 0.00 | 0.00 | 0.00 | 82 | 1021.3 |
| 20260507083624 | 55 | 321 | 0.0 | 1.7 | 0.00 | 0.00 | 0.00 | 82 | 1021.3 |
| 20260507082703 | 55 | 279 | 0.0 | 1.7 | 0.00 | 0.00 | 0.00 | 83 | 1021.3 |
| 20260507081803 | 55 | 290 | 0.0 | 1.7 | 0.00 | 0.00 | 0.00 | 83 | 1021.3 |
| 20260507080904 | 55 | 279 | 0.9 | 1.7 | 0.00 | 0.00 | 0.00 | 83 | 1021.3 |
| 20260507080024 | 55 | 289 | 0.9 | 2.6 | 0.00 | 0.00 | 0.00 | 83 | 1021.2 |
| 20260507075403 | 55 | 292 | 0.9 | 2.6 | 0.00 | 0.00 | 0.00 | 83 | 1021.2 |
| 20260507074503 | 55 | 277 | 0.0 | 1.7 | 0.00 | 0.00 | 0.00 | 84 | 1021.2 |
| 20260507073603 | 55 | 285 | 0.9 | 2.6 | 0.00 | 0.00 | 0.00 | 83 | 1021.2 |
| 20260507072703 | 55 | 285 | 0.9 | 3.5 | 0.00 | 0.00 | 0.00 | 83 | 1021.2 |
| 20260507071824 | 56 | 284 | 1.7 | 3.5 | 0.00 | 0.00 | 0.00 | 82 | 1021.2 |
| 20260507070924 | 56 | 290 | 0.9 | 4.3 | 0.00 | 0.00 | 0.00 | 83 | 1021.1 |
| 20260507070009 | 56 | 284 | 0.9 | 1.7 | 0.00 | 0.00 | 0.00 | 83 | 1021.1 |
| 20260507065403 | 56 | 289 | 0.9 | 2.6 | 0.00 | 0.00 | 0.00 | 82 | 1021.1 |
| 20260507064503 | 56 | 296 | 0.9 | 2.6 | 0.00 | 0.00 | 0.00 | 82 | 1021.1 |
| 20260507063603 | 56 | 285 | 0.9 | 2.6 | 0.00 | 0.00 | 0.00 | 82 | 1021.2 |
| 20260507062703 | 57 | 165 | 0.0 | 2.6 | 0.00 | 0.00 | 0.00 | 82 | 1021.2 |
| 20260507061803 | 57 | 296 | 0.9 | 2.6 | 0.00 | 0.00 | 0.00 | 82 | 1021.1 |
| 20260507060903 | 57 | 297 | 0.0 | 0.9 | 0.00 | 0.00 | 0.00 | 84 | 1021.2 |
| 20260507060024 | 57 | 285 | 0.9 | 2.6 | 0.00 | 0.00 | 0.00 | 83 | 1021.0 |
| 20260507055424 | 57 | 282 | 1.7 | 3.5 | 0.00 | 0.00 | 0.00 | 82 | 1021.0 |
| 20260507054503 | 58 | 292 | 0.9 | 2.6 | 0.00 | 0.00 | 0.00 | 81 | 1021.0 |
| 20260507053603 | 58 | 285 | 0.9 | 3.5 | 0.00 | 0.00 | 0.00 | 82 | 1020.9 |
| 20260507052703 | 58 | 303 | 0.9 | 2.6 | 0.00 | 0.00 | 0.00 | 81 | 1020.9 |
| 20260507051803 | 59 | 288 | 0.0 | 1.7 | 0.00 | 0.00 | 0.00 | 80 | 1020.8 |
| 20260507050924 | 59 | 296 | 0.9 | 2.6 | 0.00 | 0.00 | 0.00 | 80 | 1020.9 |
| 20260507050003 | 59 | 303 | 0.9 | 2.6 | 0.00 | 0.00 | 0.00 | 80 | 1020.9 |
| 20260507045403 | 60 | 316 | 0.9 | 1.7 | 0.00 | 0.00 | 0.00 | 80 | 1020.9 |
| 20260507044503 | 60 | 81 | 0.9 | 2.6 | 0.00 | 0.00 | 0.00 | 81 | 1020.9 |
| 20260507043603 | 60 | 50 | 1.7 | 3.5 | 0.00 | 0.00 | 0.00 | 82 | 1020.8 |
| 20260507042703 | 60 | 57 | 0.9 | 3.5 | 0.00 | 0.00 | 0.00 | 83 | 1020.7 |
| 20260507041803 | 60 | 51 | 0.9 | 0.9 | 0.00 | 0.00 | 0.00 | 84 | 1020.6 |
| 20260507040903 | 60 | 51 | 0.9 | 2.6 | 0.00 | 0.00 | 0.00 | 85 | 1020.5 |
| 20260507040003 | 60 | 51 | 0.9 | 1.7 | 0.00 | 0.00 | 0.00 | 85 | 1020.4 |
| 20260507035403 | 60 | 0 | 0.0 | 0.0 | 0.00 | 0.00 | 0.00 | 86 | 1020.3 |
| 20260507034524 | 60 | 0 | 0.0 | 0.0 | 0.00 | 0.00 | 0.00 | 85 | 1020.1 |
| 20260507033603 | 60 | 0 | 0.0 | 0.0 | 0.00 | 0.00 | 0.00 | 82 | 1020.0 |
| 20260507032703 | 61 | 51 | 0.0 | 0.9 | 0.00 | 0.00 | 0.00 | 81 | 1019.8 |
| 20260507031803 | 62 | 51 | 0.0 | 1.7 | 0.00 | 0.00 | 0.00 | 80 | 1019.8 |
| 20260507030903 | 62 | 51 | 0.0 | 0.9 | 0.00 | 0.00 | 0.00 | 79 | 1019.6 |
| 20260507030003 | 63 | 55 | 0.9 | 2.6 | 0.00 | 0.00 | 0.00 | 77 | 1019.6 |
| 20260507025403 | 64 | 59 | 1.7 | 3.5 | 0.00 | 0.00 | 0.00 | 77 | 1019.5 |
| 20260507024524 | 64 | 94 | 0.9 | 1.7 | 0.00 | 0.00 | 0.00 | 76 | 1019.4 |
| 20260507023603 | 64 | 94 | 0.0 | 1.7 | 0.00 | 0.00 | 0.00 | 76 | 1019.3 |
| 20260507022703 | 65 | 72 | 1.7 | 3.5 | 0.00 | 0.00 | 0.00 | 75 | 1019.3 |
| 20260507021803 | 66 | 79 | 1.7 | 2.6 | 0.00 | 0.00 | 0.00 | 73 | 1019.3 |
| 20260507020903 | 67 | 86 | 3.5 | 7.0 | 0.00 | 0.00 | 0.00 | 70 | 1019.3 |
| 20260507020003 | 68 | 68 | 1.7 | 3.5 | 0.00 | 0.00 | 0.00 | 72 | 1019.2 |
| 20260507015403 | 68 | 14 | 0.9 | 2.6 | 0.00 | 0.00 | 0.00 | 72 | 1019.3 |
| 20260507014503 | 68 | 78 | 1.7 | 2.6 | 0.00 | 0.00 | 0.00 | 69 | 1019.3 |
| 20260507013602 | 68 | 96 | 0.9 | 5.2 | 0.00 | 0.00 | 0.00 | 70 | 1019.3 |
| 20260507012703 | 69 | 166 | 0.9 | 3.5 | 0.00 | 0.00 | 0.00 | 67 | 1019.3 |
| 20260507011803 | 69 | 258 | 0.9 | 2.6 | 0.00 | 0.00 | 0.00 | 69 | 1019.2 |
| 20260507010003 | 70 | 219 | 2.6 | 6.1 | 0.00 | 0.00 | 0.00 | 66 | 1019.2 |
| 20260507005403 | 70 | 232 | 2.6 | 4.3 | 0.00 | 0.00 | 0.00 | 67 | 1019.2 |
| 20260507004503 | 70 | 228 | 1.7 | 5.2 | 0.00 | 0.00 | 0.00 | 65 | 1019.1 |
| 20260507003603 | 70 | 265 | 2.6 | 8.7 | 0.00 | 0.00 | 0.00 | 68 | 1019.2 |
| 20260507002724 | 70 | 185 | 0.9 | 3.5 | 0.00 | 0.00 | 0.00 | 68 | 1019.2 |
| 20260507001803 | 71 | 247 | 2.6 | 6.1 | 0.00 | 0.00 | 0.00 | 66 | 1019.2 |
| 20260507000903 | 71 | 246 | 1.7 | 6.1 | 0.00 | 0.00 | 0.00 | 66 | 1019.2 |
| 20260507000003 | 72 | 241 | 2.6 | 6.1 | 0.00 | 0.00 | 0.00 | 65 | 1019.2 |
| 20260506235403 | 72 | 263 | 3.5 | 7.0 | 0.00 | 0.00 | 0.00 | 66 | 1019.2 |
| 20260506234504 | 72 | 267 | 3.5 | 7.0 | 0.00 | 0.00 | 0.00 | 65 | 1019.2 |
| 20260506233603 | 72 | 271 | 3.5 | 8.7 | 0.00 | 0.00 | 0.00 | 69 | 1019.1 |
| 20260506232703 | 71 | 245 | 2.6 | 5.2 | 0.00 | 0.00 | 0.00 | 66 | 1019.2 |
| 20260506231824 | 71 | 264 | 1.7 | 5.2 | 0.00 | 0.00 | 0.00 | 68 | 1019.2 |
| 20260506230924 | 71 | 215 | 1.7 | 6.1 | 0.00 | 0.00 | 0.00 | 69 | 1019.3 |
| 20260506230003 | 71 | 222 | 1.7 | 3.5 | 0.00 | 0.00 | 0.00 | 70 | 1019.4 |
| 20260506225403 | 71 | 204 | 1.7 | 4.3 | 0.00 | 0.00 | 0.00 | 67 | 1019.4 |
| 20260506224503 | 70 | 63 | 0.9 | 2.6 | 0.00 | 0.00 | 0.00 | 72 | 1019.5 |
| 20260506223603 | 69 | 149 | 1.7 | 5.2 | 0.00 | 0.00 | 0.00 | 72 | 1019.6 |
| 20260506222703 | 68 | 83 | 4.3 | 8.7 | 0.00 | 0.00 | 0.00 | 74 | 1019.6 |
| 20260506221803 | 68 | 92 | 3.5 | 6.1 | 0.00 | 0.00 | 0.00 | 71 | 1019.7 |
| 20260506220903 | 68 | 89 | 3.5 | 8.7 | 0.00 | 0.00 | 0.00 | 72 | 1019.8 |
| 20260506220004 | 68 | 67 | 4.3 | 10.4 | 0.00 | 0.00 | 0.00 | 74 | 1019.8 |
| 20260506215404 | 68 | 74 | 4.3 | 8.7 | 0.00 | 0.00 | 0.00 | 73 | 1019.8 |
| 20260506214503 | 68 | 118 | 2.6 | 7.0 | 0.00 | 0.00 | 0.00 | 71 | 1019.7 |
| 20260506213603 | 68 | 105 | 4.3 | 8.7 | 0.00 | 0.00 | 0.00 | 74 | 1019.7 |
| 20260506212703 | 67 | 98 | 2.6 | 6.1 | 0.00 | 0.00 | 0.00 | 73 | 1020.0 |
| 20260506211824 | 68 | 92 | 3.5 | 7.0 | 0.00 | 0.00 | 0.00 | 74 | 1020.0 |
| 20260506210903 | 68 | 99 | 2.6 | 6.1 | 0.00 | 0.00 | 0.00 | 73 | 1020.1 |
| 20260506210003 | 68 | 173 | 0.9 | 4.3 | 0.00 | 0.00 | 0.00 | 74 | 1020.2 |
| 20260506205403 | 68 | 113 | 1.7 | 5.2 | 0.00 | 0.00 | 0.00 | 73 | 1020.3 |
| 20260506204503 | 68 | 179 | 3.5 | 7.0 | 0.00 | 0.00 | 0.00 | 72 | 1020.2 |
| 20260506203603 | 68 | 151 | 1.7 | 7.0 | 0.00 | 0.00 | 0.00 | 74 | 1020.2 |
| 20260506202704 | 67 | 291 | 2.6 | 7.0 | 0.00 | 0.00 | 0.00 | 77 | 1020.1 |
| 20260506201803 | 66 | 330 | 2.6 | 7.8 | 0.00 | 0.00 | 0.00 | 77 | 1020.2 |
| 20260506200903 | 66 | 91 | 4.3 | 9.6 | 0.00 | 0.00 | 0.00 | 76 | 1020.3 |
| 20260506200003 | 66 | 93 | 2.6 | 7.0 | 0.00 | 0.00 | 0.00 | 76 | 1020.4 |
| 20260506195403 | 67 | 109 | 2.6 | 8.7 | 0.00 | 0.00 | 0.00 | 75 | 1020.5 |
| 20260506194524 | 66 | 226 | 2.6 | 7.0 | 0.00 | 0.00 | 0.00 | 77 | 1020.7 |
| 20260506193603 | 65 | 79 | 3.5 | 7.0 | 0.00 | 0.00 | 0.00 | 79 | 1020.6 |
| 20260506192724 | 65 | 103 | 1.7 | 6.1 | 0.00 | 0.00 | 0.00 | 80 | 1020.7 |
| 20260506191803 | 65 | 160 | 1.7 | 5.2 | 0.00 | 0.00 | 0.00 | 78 | 1020.7 |
| 20260506190903 | 65 | 159 | 3.5 | 7.8 | 0.00 | 0.00 | 0.00 | 79 | 1020.6 |
| 20260506190003 | 65 | 154 | 2.6 | 5.2 | 0.00 | 0.00 | 0.00 | 80 | 1020.6 |
| 20260506185403 | 64 | 204 | 1.7 | 3.5 | 0.00 | 0.00 | 0.00 | 78 | 1020.6 |
| 20260506184524 | 64 | 115 | 3.5 | 10.4 | 0.00 | 0.00 | 0.00 | 80 | 1020.5 |
| 20260506183603 | 64 | 124 | 2.6 | 7.0 | 0.00 | 0.00 | 0.00 | 80 | 1020.4 |
| 20260506182703 | 65 | 202 | 2.6 | 7.0 | 0.00 | 0.00 | 0.00 | 78 | 1020.5 |
| 20260506181803 | 64 | 280 | 2.6 | 7.0 | 0.00 | 0.00 | 0.00 | 81 | 1020.6 |
| 20260506180903 | 63 | 259 | 3.5 | 7.0 | 0.00 | 0.00 | 0.00 | 81 | 1020.7 |
| 20260506180004 | 63 | 258 | 3.5 | 8.7 | 0.00 | 0.00 | 0.00 | 82 | 1020.7 |
| 20260506175403 | 62 | 76 | 1.7 | 4.3 | 0.00 | 0.00 | 0.00 | 83 | 1020.8 |
| 20260506174503 | 62 | 269 | 3.5 | 7.8 | 0.00 | 0.00 | 0.00 | 83 | 1020.7 |
| 20260506173624 | 62 | 210 | 1.7 | 4.3 | 0.00 | 0.00 | 0.00 | 83 | 1020.6 |
| 20260506172703 | 61 | 246 | 1.7 | 3.5 | 0.00 | 0.00 | 0.00 | 83 | 1020.5 |
| 20260506171803 | 61 | 223 | 1.7 | 6.1 | 0.00 | 0.00 | 0.00 | 84 | 1020.3 |
| 20260506170903 | 60 | 238 | 1.7 | 2.6 | 0.00 | 0.00 | 0.00 | 87 | 1020.5 |
| 20260506170003 | 60 | 214 | 1.7 | 3.5 | 0.00 | 0.00 | 0.00 | 87 | 1020.6 |
| 20260506165403 | 59 | 218 | 0.9 | 3.5 | 0.00 | 0.00 | 0.00 | 85 | 1020.7 |
| 20260506164503 | 59 | 180 | 0.9 | 1.7 | 0.00 | 0.00 | 0.00 | 86 | 1020.7 |
| 20260506163603 | 59 | 77 | 1.7 | 2.6 | 0.00 | 0.00 | 0.00 | 86 | 1020.7 |
| 20260506162703 | 59 | 233 | 0.0 | 1.7 | 0.00 | 0.00 | 0.00 | 88 | 1020.7 |
| 20260506161803 | 58 | 308 | 0.9 | 3.5 | 0.00 | 0.00 | 0.00 | 89 | 1020.7 |
| 20260506160903 | 58 | 94 | 0.9 | 1.7 | 0.00 | 0.00 | 0.00 | 88 | 1020.5 |
| 20260506160003 | 57 | 229 | 0.9 | 2.6 | 0.00 | 0.00 | 0.00 | 89 | 1020.5 |
| 20260506155403 | 57 | 112 | 0.9 | 4.3 | 0.00 | 0.00 | 0.00 | 90 | 1020.4 |
| 20260506154503 | 57 | 125 | 1.7 | 4.3 | 0.00 | 0.00 | 0.00 | 90 | 1020.2 |
| 20260506153624 | 56 | 119 | 2.6 | 7.0 | 0.00 | 0.00 | 0.00 | 91 | 1019.8 |
| 20260506152703 | 56 | 118 | 2.6 | 6.1 | 0.00 | 0.00 | 0.00 | 91 | 1020.2 |
| 20260506151803 | 56 | 66 | 0.9 | 1.7 | 0.00 | 0.00 | 0.00 | 93 | 1020.4 |
| 20260506150903 | 56 | 282 | 0.0 | 0.9 | 0.00 | 0.00 | 0.00 | 92 | 1020.7 |
| 20260506150003 | 56 | 282 | 0.0 | 1.7 | 0.00 | 0.00 | 0.00 | 94 | 1020.7 |
| 20260506145403 | 56 | 262 | 0.9 | 2.6 | 0.00 | 0.00 | 0.00 | 93 | 1020.7 |
| 20260506144503 | 56 | 264 | 0.9 | 2.6 | 0.00 | 0.00 | 0.00 | 93 | 1020.7 |
| 20260506143603 | 56 | 273 | 1.7 | 2.6 | 0.00 | 0.00 | 0.00 | 93 | 1020.5 |
| 20260506142703 | 56 | 266 | 0.9 | 2.6 | 0.00 | 0.00 | 0.00 | 92 | 1020.3 |
| 20260506141803 | 55 | 270 | 0.9 | 2.6 | 0.00 | 0.00 | 0.00 | 94 | 1020.0 |
| 20260506140903 | 55 | 225 | 0.0 | 0.9 | 0.00 | 0.00 | 0.00 | 94 | 1019.7 |
| 20260506140003 | 55 | 224 | 0.9 | 1.7 | 0.00 | 0.00 | 0.00 | 94 | 1019.6 |
| 20260506135424 | 55 | 207 | 0.0 | 1.7 | 0.00 | 0.00 | 0.00 | 94 | 1019.5 |
| 20260506134503 | 54 | 153 | 0.0 | 1.7 | 0.00 | 0.00 | 0.00 | 95 | 1019.6 |
| 20260506133603 | 54 | 298 | 0.9 | 1.7 | 0.00 | 0.00 | 0.00 | 95 | 1019.5 |
| 20260506132703 | 54 | 250 | 0.9 | 3.5 | 0.00 | 0.00 | 0.00 | 94 | 1019.5 |
| 20260506131803 | 54 | 9 | 0.0 | 0.9 | 0.00 | 0.00 | 0.00 | 94 | 1019.3 |
| 20260506130903 | 54 | 265 | 0.9 | 1.7 | 0.00 | 0.00 | 0.00 | 94 | 1019.3 |
| 20260506130004 | 55 | 74 | 0.9 | 1.7 | 0.00 | 0.00 | 0.00 | 94 | 1019.0 |
| 20260506125403 | 55 | 74 | 0.0 | 1.7 | 0.00 | 0.00 | 0.00 | 94 | 1019.1 |
| 20260506124503 | 55 | 59 | 0.9 | 1.7 | 0.00 | 0.00 | 0.00 | 94 | 1019.1 |
| 20260506123603 | 55 | 83 | 1.7 | 2.6 | 0.00 | 0.00 | 0.00 | 94 | 1018.9 |
| 20260506122703 | 55 | 85 | 2.6 | 3.5 | 0.00 | 0.00 | 0.00 | 94 | 1019.0 |
| 20260506121803 | 55 | 74 | 0.9 | 2.6 | 0.00 | 0.00 | 0.00 | 94 | 1019.0 |
| 20260506120903 | 55 | 68 | 1.7 | 2.6 | 0.00 | 0.00 | 0.00 | 94 | 1019.1 |
| 20260506120003 | 56 | 53 | 1.7 | 2.6 | 0.00 | 0.00 | 0.00 | 94 | 1019.1 |
| 20260506115403 | 56 | 53 | 0.9 | 1.7 | 0.00 | 0.00 | 0.00 | 94 | 1019.0 |
| 20260506114503 | 56 | 53 | 0.9 | 1.7 | 0.00 | 0.00 | 0.00 | 94 | 1018.8 |
| 20260506113603 | 56 | 56 | 0.9 | 2.6 | 0.00 | 0.00 | 0.00 | 94 | 1018.7 |
| 20260506112703 | 56 | 71 | 0.9 | 1.7 | 0.00 | 0.00 | 0.00 | 94 | 1018.6 |
| 20260506111803 | 56 | 71 | 0.9 | 1.7 | 0.00 | 0.00 | 0.00 | 94 | 1018.6 |
| 20260506110903 | 56 | 71 | 1.7 | 2.6 | 0.00 | 0.00 | 0.00 | 94 | 1018.5 |
| 20260506110003 | 56 | 71 | 0.9 | 1.7 | 0.00 | 0.00 | 0.00 | 94 | 1018.4 |
| 20260506105403 | 56 | 85 | 0.9 | 2.6 | 0.00 | 0.00 | 0.00 | 94 | 1018.2 |
| 20260506104504 | 57 | 203 | 0.9 | 1.7 | 0.00 | 0.00 | 0.00 | 94 | 1018.1 |
| 20260506103603 | 57 | 203 | 0.9 | 1.7 | 0.00 | 0.00 | 0.00 | 94 | 1018.0 |
| 20260506102703 | 57 | 203 | 0.9 | 1.7 | 0.00 | 0.00 | 0.00 | 95 | 1017.9 |
| 20260506101803 | 57 | 203 | 0.9 | 1.7 | 0.00 | 0.00 | 0.00 | 95 | 1017.8 |
| 20260506100924 | 57 | 203 | 0.9 | 1.7 | 0.00 | 0.00 | 0.00 | 95 | 1017.7 |
| 20260506100024 | 57 | 203 | 0.0 | 0.9 | 0.00 | 0.00 | 0.00 | 95 | 1017.7 |
| 20260506095403 | 57 | 203 | 0.0 | 0.9 | 0.00 | 0.00 | 0.00 | 95 | 1017.7 |
| 20260506094503 | 57 | 203 | 0.0 | 0.9 | 0.00 | 0.00 | 0.00 | 95 | 1017.6 |
| 20260506093603 | 57 | 0 | 0.0 | 0.0 | 0.00 | 0.00 | 0.00 | 95 | 1017.5 |
| 20260506092702 | 57 | 0 | 0.0 | 0.0 | 0.00 | 0.00 | 0.00 | 96 | 1017.4 |
| 20260506091824 | 57 | 0 | 0.0 | 0.0 | 0.00 | 0.00 | 0.00 | 96 | 1017.5 |
| 20260506090903 | 57 | 203 | 0.0 | 0.9 | 0.00 | 0.00 | 0.00 | 96 | 1017.4 |